Weather History for Lanai City, HI

Change the Weather History Date:

Monday, November 19, 2012

  Actual Average Record
Temperature  
Mean Temperature 74 °F -  
Max Temperature 82 °F 78 °F 84 °F (2001)
Min Temperature 65 °F 65 °F 56 °F (1951)
Cooling Degree Days 8    
Growing Degree Days 24 (Base 50)    
Moisture  
Dew Point 64 °F    
Average Humidity 75    
Maximum Humidity 93    
Minimum Humidity 54    
Precipitation  
Precipitation 0.00 in - - ()
Sea Level Pressure  
Sea Level Pressure 30.08 in    
Wind  
Wind Speed 8 mph (North)    
Max Wind Speed 13 mph    
Max Gust Speed -    
Visibility 9 miles    
Events      
Averages and records for this station are not official NWS values.
T = Trace of Precipitation, MM = Missing Value Source: NWS Daily Summary

Daily Weather History Graph

Daily Weather History Graph

Search for Another Location

Airport:

Trip Planner

Search our weather history database for the weather conditions in past years. The results will help you decide how hot, cold, wet, or windy it might be!

Date:

Astronomy

Nov. 19, 2012 Rise Set
Actual Time 6:40 AM HST 5:45 PM HST
Civil Twilight 6:17 AM HST 6:09 PM HST
Nautical Twilight 5:50 AM HST 6:36 PM HST
Astronomical Twilight 5:23 AM HST 7:03 PM HST
Moon 12:07 PM HST (11/19) No Moon Set
Length of Visible Light 11h 52m
Length of Day
11h 05m
Waxing Crescent, 43% of the Moon is Illuminated
Nov 19
Waxing Crescent
Nov 20
First Quarter
Nov 28
Full
Dec 6
Last Quarter
Dec 12
New

Hourly Weather History & Observations

Time (HST) Temp. Heat Index Dew Point Humidity Pressure Visibility Wind Dir Wind Speed Gust Speed Precip Events Conditions
12:56 AM 68.9 °F - 64.9 °F 87% 30.04 in 10.0 mi NNE 12.7 mph - N/A   Clear
1:56 AM 68.9 °F - 63.9 °F 84% 30.03 in 10.0 mi NE 12.7 mph - N/A   Clear
2:56 AM 68.9 °F - 63.9 °F 84% 30.03 in 10.0 mi ENE 10.4 mph - N/A   Clear
3:56 AM 68.0 °F - 63.0 °F 84% 30.04 in 10.0 mi East 9.2 mph - N/A   Clear
4:56 AM 66.9 °F - 63.9 °F 90% 30.04 in 10.0 mi East 4.6 mph - N/A   Clear
5:56 AM 65.8 °F - 63.0 °F 90% 30.06 in 10.0 mi NNE 8.1 mph - N/A   Clear
6:56 AM 65.8 °F - 63.9 °F 93% 30.08 in 10.0 mi NE 5.8 mph - N/A   Clear
7:56 AM 66.9 °F - 63.0 °F 87% 30.09 in 10.0 mi East 5.8 mph - N/A   Clear
8:56 AM 73.9 °F - 63.9 °F 71% 30.10 in 10.0 mi Calm Calm - N/A   Partly Cloudy
9:56 AM 79.0 °F - 64.9 °F 62% 30.09 in 10.0 mi NW 5.8 mph - N/A   Mostly Cloudy
10:06 AM 80.6 °F 82.7 °F 66.2 °F 61% 30.15 in 10.0 mi WNW 6.9 mph - N/A   Scattered Clouds
10:56 AM 80.6 °F 82.3 °F 64.4 °F 58% 30.14 in 10.0 mi West 6.9 mph - N/A   Partly Cloudy
11:56 AM 79.0 °F - 64.9 °F 62% 30.06 in 6.0 mi Variable 5.8 mph - N/A   Haze
12:23 PM 78.8 °F - 64.4 °F 61% 30.11 in 10.0 mi SW 8.1 mph - N/A   Mostly Cloudy
12:34 PM 78.8 °F - 64.4 °F 61% 30.11 in 7.0 mi SSW 5.8 mph - N/A   Partly Cloudy
12:56 PM 79.0 °F - 63.9 °F 60% 30.03 in 4.0 mi Variable 5.8 mph - N/A   Haze
1:49 PM 82.4 °F 83.9 °F 64.4 °F 54% 30.08 in 2.0 mi West 8.1 mph - N/A   Haze
1:56 PM 82.4 °F 83.9 °F 64.4 °F 54% 30.08 in 6.0 mi West 8.1 mph - N/A   Haze
2:44 PM 80.6 °F 82.3 °F 64.4 °F 58% 30.07 in 10.0 mi West 6.9 mph - N/A   Mostly Cloudy
2:56 PM 79.9 °F - 63.9 °F 58% 30.00 in 10.0 mi NW 8.1 mph - N/A   Overcast
3:32 PM 78.8 °F - 64.4 °F 61% 30.06 in 10.0 mi NNE 12.7 mph - N/A   Scattered Clouds
3:56 PM 77.9 °F - 63.9 °F 62% 30.00 in 10.0 mi NNE 10.4 mph - N/A   Partly Cloudy
4:56 PM 73.4 °F - 64.4 °F 73% 30.08 in 10.0 mi SSW 9.2 mph - N/A   Scattered Clouds
5:56 PM 72.0 °F - 64.9 °F 78% 30.06 in 10.0 mi NW 3.5 mph - N/A   Scattered Clouds
6:04 PM 71.6 °F - 64.4 °F 78% 30.10 in 10.0 mi WNW 4.6 mph - N/A   Mostly Cloudy
6:35 PM 71.6 °F - 64.4 °F 78% 30.11 in 10.0 mi North 5.8 mph - N/A   Scattered Clouds
6:56 PM 70.9 °F - 63.9 °F 78% 30.06 in 10.0 mi NNE 9.2 mph - N/A   Partly Cloudy
7:56 PM 68.9 °F - 63.9 °F 84% 30.09 in 10.0 mi Calm Calm - N/A   Clear
8:56 PM 68.0 °F - 63.9 °F 87% 30.09 in 10.0 mi Calm Calm - N/A   Clear
9:56 PM 66.9 °F - 63.9 °F 90% 30.09 in 10.0 mi NNE 5.8 mph - N/A   Clear
10:56 PM 68.0 °F - 64.4 °F 88% 30.14 in 10.0 mi ENE 4.6 mph - N/A   Scattered Clouds
11:03 PM 68.0 °F - 64.4 °F 88% 30.14 in 10.0 mi ENE 5.8 mph - N/A   Mostly Cloudy
11:22 PM 68.0 °F - 64.4 °F 88% 30.14 in 10.0 mi NNE 4.6 mph - N/A   Scattered Clouds
11:56 PM 66.9 °F - 63.9 °F 90% 30.07 in 10.0 mi ENE 4.6 mph - N/A   Clear